Regional Weather Roundup
Issued by NWS

Home | Current Version | Previous Version | Graphics & Text | Print | Product List | Glossary On
Versions: 1 2 3 4 5 6 7 8 9 10 11 12 13 14 15 16 17 18 19 20 21 22 23 24 25 26 27 28 29 30 31 32 33 34 35 36 37 38 39 40 41 42 43 44 45 46 47 48 49 50
000
ASUS43 KTOP 242108
RWRKS

WEATHER ROUNDUP FOR KANSAS
NATIONAL WEATHER SERVICE GOODLAND KS
400 PM CDT TUE MAY 24 2016

NOTE:  "FAIR" INDICATES FEW OR NO CLOUDS BELOW 12,000 FEET WITH NO
SIGNIFICANT WEATHER AND/OR OBSTRUCTIONS TO VISIBILITY.

KSZ001>006-013>018-027>032-041>047-242200-
NORTHWEST KANSAS

CITY           SKY/WX    TMP DP  RH WIND       PRES   REMARKS
GOODLAND       MOSUNNY   75  60  59 SE12      29.87F
HAYS           PTSUNNY   79  61  53 SE20      29.85S
HILL CITY      SUNNY     80  60  50 SE18G26   29.86F
RUSSELL        MOSUNNY   77  64  64 SE18G30   29.85F
$$

KSZ061>065-074>080-084>089-242200-
SOUTHWEST KANSAS

CITY           SKY/WX    TMP DP  RH WIND       PRES   REMARKS
DODGE CITY     MOSUNNY   82  68  62 SE22      29.82F
ELKHART          N/A     87  47  24 S13         N/A
GARDEN CITY    MOSUNNY   84  65  52 SE23G36   29.78F
GREAT BEND     PTSUNNY   81  64  57 SE17      29.85F
LIBERAL        SUNNY     90  55  31 S14G21    29.81F
PRATT          MOSUNNY   81  65  59 S16       29.85F
$$

KSZ066>073-081>083-090>101-242200-
SOUTHEAST KANSAS

CITY           SKY/WX    TMP DP  RH WIND       PRES   REMARKS
CHANUTE        MOSUNNY   80  70  71 S16       29.90F
COFFEYVILLE    SUNNY     82  70  66 S9        29.90F
HUTCHINSON     PTSUNNY   81  69  67 SE13      29.87S
MEDICINE LODGE   N/A     86  68  54 SE15G23   29.82F
NEWTON         CLOUDY    75  64  69 SE16      29.92S
PARSONS        PTSUNNY   82  73  74 VRB7      29.91F
WICHITA INTL   PTSUNNY   82  71  69 SE14      29.86F
WICHITA JABRA  MOSUNNY   79  70  74 SE14G20   29.87F
WICHITA MCCONL MOSUNNY   81  71  71 SE17      29.88S
WINFIELD       CLOUDY    81  72  74 SE20      29.88F
$$

KSZ007>012-019>026-033>040-048>060-102>105-242200-
NORTHEAST KANSAS

CITY           SKY/WX    TMP DP  RH WIND       PRES   REMARKS
CONCORDIA      SUNNY     81  60  48 SE15      29.87F
EMPORIA        SUNNY     79  67  66 S16G22    29.89S
LAWRENCE       SUNNY     79  67  66 S15G22    29.87F
MANHATTAN      SUNNY     82  62  50 SE12G20   29.86F
MARYSVILLE     SUNNY     82  63  51 S9        29.88F
OLATHE IND     SUNNY     76  67  73 S15       29.88F
OLATHE EXE     CLOUDY    74  66  76 S12G22    29.88F
SALINA         MOSUNNY   82  64  54 S14       29.87F
TOPEKA BILLARD SUNNY     81  64  56 S14       29.87F
TOPEKA FORBES  SUNNY     81  65  58 SE13G24   29.87F
$$



USA.gov is the U.S. government's official web portal to all federal, state and local government web resources and services.